Время (UTC), дата Ветер
(°,м/с) 
Видим.   Явления Облачность Т
(°С)
Тd
(°С)
f(%) Тe
(°С)
Pmin
(гПа)
dP
(гПа)
Po
(мм)
O2
(г/м3)
Тmin Tmax R s Состояние
почвы
00 19.05.16 080 (В) 3100 м  слаб. ливневой дождь  10/6 750 м кучево-дожд., средняя 
[Cb calv|Ac und]
+13.8 +12.9 94 +19  1008.9  -0.7  750  285           
03 19.05.16 220 (ЮЗ) 4000 м  дымка{ливн. осадки}  10/6 630 м кучево-дожд., средняя 
[Cb calv|Ac und]
+13.8 +12.9 94 +19  1009.2  0.2  750  285  +13.7    10     
06 19.05.16 210 (ЮЗ) 10 км  {ливн. осадки}  9/4 300 м кучево-дожд., средняя 
[Cb calv|Ac trans]
+16.2 +13.6 85 +23  1009.3  0.1  750  283           
09 19.05.16 210 (ЮЗ) 10 км  {ливн. осадки}  9/0 кучево-дожд., средняя 
[Cb calv|Ac trans]
+19.5 +13.5 68 +26  1009.6  0.4  751  280           
12 19.05.16 260 (З) 7-11{12}  10 км  {ливн. осадки}  8/0 кучево-дожд., средняя 
[Cb calv|Ac trans]
+19.7 +12.1 61 +24  1010.7  0.9  752  280           
15 19.05.16 270 (З) 6-10{13}  10 км    6/0 средняя 
[Cu med, cong|Ac trans]
+18 +10 59 +19  1011.4  0.7  752  282    +20.6  0.0     
18 19.05.16 280 (З) 3{13}  8000 м    4/0 средняя 
[Ac trans]
+15.4 +8.5 63 +16  1012.4  0.9  753  286           
21 19.05.16 230 (ЮЗ) 8000 м    4/0 
[Sc]
+12.7 +8.9 78 +13  1012.9  0.3  753  288           
00 20.05.16 260 (З) 8000 м  {ливн. осадки}  8/0 кучево-дожд., средняя 
[Cb calv|Ac trans]
+12.1 +10.1 88 +13  1013.2  0.3  753  289           
03 20.05.16 230 (ЮЗ) 10 км    1/0 средняя 
[Ac trans]
+12 +10.6 91 +14  1014.4  754  289  +10.7       
06 20.05.16 240 (ЮЗ) 10 км    5/0 кучево-дожд. 
[Cb calv]
+16.7 +9.4 62 +17  1015.3  755  285           
09 20.05.16 250 (З) 6-10{11}  10 км    6/0 средняя 
[Cu med, cong|Ac trans]
+17.3 +4.7 43 +17  1016.5  1.3  756  286           
12 20.05.16 230 (ЮЗ) 7-10{11}  10 км    6/0 средняя 
[Cu hum|Ac trans]
+18 +7.8 51 +18  1016.4  756  284           
15 20.05.16 260 (З) 5{10}  10 км    4/0 средняя, верхняя 
[Cu hum|Ac trans|Ci fib]
+17.6 +6.9 49 +18  1016.7  0.1  756  285    +18.6       
18 20.05.16 260 (З) 2{10}  8000 м    4/0 средняя, верхняя 
[Ac trans|Ci fib]
+14.4 +7.2 62 +15  1017.8  757  288           
21 20.05.16 230 (ЮЗ) 8000 м    ясно 
+11.3 +6.9 74 +11  1018.2  0.3  757  292           
00 21.05.16 230 (ЮЗ) 8000 м    3/0 средняя 
[Ac trans]
+9.5 +6.4 81 +9  1018  -0.3  757  294           
03 21.05.16 240 (ЮЗ) 10 км    6/0 кучево-дожд., средняя, верхняя 
[Cb calv|Ac trans|Ci fib]
+10.9 +8.6 86 +11  1018.3  0.4  757  292  +9.2         
06 21.05.16 220 (ЮЗ) 10 км    8/0 кучево-дожд., средняя 
[Cb calv|Ac trans]
+16.9 +11.8 72 +20  1018.3  0.1  757  285           
09 21.05.16 250 (З) 6-10{10}  10 км    8/0 кучево-дожд., средняя 
[Cb calv|Ac trans]
+19.4 +7.9 47 +20  1017.8  -0.3  757  283           
12 21.05.16 260 (З) 5{11}  10 км    4/0 
[Cu med, cong]
+20.9 +7.4 42 +21  1016.9  -0.7  756  282           
15 21.05.16 260 (З) 5{11}  10 км    4/0 средняя 
[Ac trans]
+20.2 +6.1 40 +20  1017.1  0.1  756  283    +21.2       
18 21.05.16 250 (З) 2{11}  8000 м    4/0 средняя 
[Ac trans]
+16.8 +7.5 54 +18  1017.7  0.5  757  286           
21 21.05.16 230 (ЮЗ) 8000 м    9/0 средняя 
[Ac trans]
+15 +7.9 62 +15  1017.3  -0.5  756  288           
00 22.05.16 240 (ЮЗ) 8000 м    3/0 верхняя 
[Ci fib]
+12 +7.7 75 +12  1016.5  -0.9  756  290           
03 22.05.16 220 (ЮЗ) 10 км    8/0 верхняя 
[Ci fib]
+12.6 +9.9 84 +14  1016.3  -0.1  755  289  +11.5         
06 22.05.16 230 (ЮЗ) 10 км    8/0 верхняя 
[Ci fib]
+18.4 +13.5 73 +25  1016  -0.1  755  282           
09 22.05.16 220 (ЮЗ) 10 км    6/5 1470 м верхняя 
[Cu med, cong|Ci fib]
+22.6 +11.4 49 +26  1015.3  -0.5  755  279           
12 22.05.16 230 (ЮЗ) 10 км    6/0 средняя, верхняя 
[Cu med, cong|Ac trans|Ci fib]
+22.8 +7.1 36 +23  1014.3  -0.9  754  279           
15 22.05.16 270 (З) 1{11}  10 км    6/0 средняя, верхняя 
[Cu med, cong|Ac trans|Ci fib]
+22.4 +7.2 37 +22  1013.5  -0.7  754  279    +23.7       
18 22.05.16 320 (СЗ) 8000 м    9/0 средняя 
[Ac trans]
+20.3 +9.2 49 +20  1013.9  0.2  754  281           
21 22.05.16 360 (С) 8000 м    9/0 средняя, верхняя 
[Ac trans|Ci fib]
+18.1 +7.9 51 +19  1012.8  -1.1  753  283           
00 23.05.16 050 (СВ) 8000 м    9/0 кучево-дожд., средняя 
[Cb calv|Ac trans]
+16.6 +8.7 60 +18  1012.3  -0.5  753  284           
03 23.05.16 160 (Ю) 5000 м  слаб. ливневой дождь  10/5 450 м кучево-дожд., средняя 
[Cb calv|Ac und]
+14.6 +12.2 86 +19  1012.2  -0.1  753  285  +14.6    0.2     
06 23.05.16 090 (В) 10 км  {ливн. осадки}  9/0 кучево-дожд., средняя 
[Cb calv|Ac trans]
+16 +12.7 81 +21  1012.3  0.1  753  284           
09 23.05.16 080 (В) 10 км    9/0 кучево-дожд., средняя 
[Cb calv|Ac trans]
+17.7 +11.4 67 +21  1011.9  -0.3  752  283           
12 23.05.16 110 (В) 10 км    9/0 кучево-дожд., средняя 
[Cb calv|Ac trans]
+17.3 +12.4 73 +21  1011.3  -0.6  752  283           
15 23.05.16 130 (ЮВ) 10 км    8/0 средняя 
[Sc|Ac trans]
+17.4 +12.6 73 +24  1010.4  -0.8  751  282    +18       
18 23.05.16 090 (В) 8000 м    6/0 средняя, верхняя 
[Sc|Ac trans|Ci fib]
+14.5 +12.4 87 +19  1010.5  751  285           
21 23.05.16 080 (В) 8000 м  местами туман поземный  6/0 средняя 
[St|Ac trans]
+13.2 +11.8 91 +18  1010.3  -0.3  751  286           
00 24.05.16 050 (СВ) 0100 м  туман  8/5 <0100 м средняя 
[St|Ac trans]
+11.7 +10.7 94 +15  1009.3  -1  750  288           
03 24.05.16 090 (В) 0400 м  туман  10/8 100 м средняя 
[St|Ac und]
+12.9 +12.1 95 +18  1009  -0.2  750  286  +10.2         
06 24.05.16 180 (Ю) 6000 м  дымка{туман}  9/3 420 м средняя, верхняя 
[St|Ac trans|Ci fib]
+17.6 +14.1 80 +26  1009  0.2  750  281           
09 24.05.16 240 (ЮЗ) 10 км    9/5 1300 м кучево-дожд., верхняя 
[Cb calv|Ci fib]
+20.6 +12.5 60 +25  1008.3  -0.6  750  279           
12 24.05.16 150 (ЮВ) 1600 м  гроза, ливневой дождь  9/5 420 м кучево-дожд., верхняя 
[Cb cap|Ci]
+16.8 +13.4 80 +23  1008.4  0.1  750  282           
15 24.05.16 190 (Ю) 10 км  {гроза, ливн. осадки}  9/0 кучево-дожд., средняя, верхняя 
[Cb calv|Ac trans|Ci fib]
+18.1 +14 77 +26  1008  -0.4  749  280    +21  13     
18 24.05.16 240 (ЮЗ) 8000 м  {гроза, ливн. осадки}  6/0 кучево-дожд., средняя, верхняя 
[Cb calv|Ac trans|Ci fib]
+15.5 +12.3 81 +20  1009.2  750  284           
21 24.05.16 270 (З) 7000 м  дымка  4/0 средняя, верхняя 
[Ac trans|Ci fib]
+15 +12.6 86 +21  1008.8  -0.3  750  284           
00 25.05.16 300 (СЗ) 3400 м  местами туман поземный  3/0 верхняя 
[Ci fib]
+13.3 +12.1 92 +19  1008.6  -0.3  750  286           
03 25.05.16 260 (З) 5000 м  в посл. час туман  6/6 200 м 
+13.4 +12.4 94 +19  1008.6  750  286  +12.1         
06 25.05.16 230 (ЮЗ) 10 км  {туман}  4/0 средняя 
[Cu med, cong|Ac trans]
+20.4 +15.8 75 +30  1008.5  0.3  750  278           
09 25.05.16 120 (ЮВ) 10 км    5/0 кучево-дожд. 
[Cb calv]
+22.2 +12.9 56 +27  1008.1  -0.4  750  277           
12 25.05.16 230 (ЮЗ) 10 км  слаб. ливневой дождь{гроза}  5/0 кучево-дожд. 
[Cb calv]
+20.8 +14.5 67 +29  1007.8  -0.3  749  278           
15 25.05.16 220 (ЮЗ) 10 км  {ливн. осадки}  8/3 1500 м кучево-дожд., средняя, верхняя 
[Cb calv|Ac trans|Ci fib]
+23.2 +12.8 52 +28  1007.3  -0.3  749  276    +24.1       
18 25.05.16 тихо ()   6000 м  дым{ливн. осадки}  8/0 средняя, верхняя 
[Ac trans|Ci]
+17.3 +11.8 70 +21  1007.5  749  282           
21 25.05.16 360 (С) 8000 м    4/0 верхняя 
[Ci fib]
+15.3 +11.1 76 +19  1007.4  -0.1  749  284           
00 26.05.16 040 (СВ) 8000 м    4/0 верхняя 
[Ci fib]
+15.1 +11.6 80 +19  1006.3  -1.1  748  283           
03 26.05.16 090 (В) 5000 м  дымка  5/0 средняя, верхняя 
[Ac trans|Ci]
+16.1 +12.9 81 +22  1007  0.6  749  282  +13.6         
06 26.05.16 090 (В) 10 км    8/0 средняя, верхняя 
[Ac trans|Ci fib]
+20.8 +14.9 69 +29  1007  0.1  749  277           
09 26.05.16 100 (В) 10 км    8/0 средняя, верхняя 
[Cu med, cong|Ac trans|Ci]
+23.8 +12.1 48 +28  1007.1  0.3  749  275           
12 26.05.16 180 (Ю) 10 км    9/0 кучево-дожд., средняя, верхняя 
[Cb calv|Ac trans|Ci fib]
+24.5 +12.7 48 +29  1007.1  -0.1  749  275           
15 26.05.16 280 (З) 10 км  в посл. час ливневой дождь  9/0 кучево-дожд., средняя, верхняя 
[Cb calv|Ac trans|Ci fib]
+22.2 +12.7 55 +27  1007.5  0.3  749  277    +25.1  0.0     
18 26.05.16 290 (З) 8000 м  {ливн. осадки}  9/0 кучево-дожд., средняя, верхняя 
[Cb calv|Ac trans|Ci fib]
+20.1 +13.7 67 +27  1009.5  1.9  751  279           
21 26.05.16 310 (СЗ) 8000 м    3/0 средняя 
[Ac trans]
+16.4 +13.5 83 +24  1010  0.3  751  283           
00 27.05.16 330 (СЗ) 8000 м    3/0 средняя 
[Ac trans]
+16.3 +13.6 84 +23  1010.1  0.1  751  283           
03 27.05.16 120 (ЮВ) 10 км    9/0 средняя 
[Ac trans]
+15.2 +12.9 86 +22  1012.1  752  285  +14.6         
06 27.05.16 200 (Ю) 6000 м  слаб. ливневой дождь  10/0 кучево-дожд., средняя 
[Cb calv|Ac und]
+17 +14.1 83 +25  1013.5  1.3  754  283           
09 27.05.16 310 (СЗ) 8000 м  в посл. час ливневой дождь  10/0 кучево-дожд., средняя 
[Cb calv|Ac und]
+17.7 +14.7 83 +27  1013.9  0.3  754  282           
12 27.05.16 350 (С) 10 км  {ливн. осадки}  9/4 1500 м кучево-дожд., средняя 
[Cb calv|Ac trans]
+18.9 +13.5 71 +26  1014.3  0.4  754  282           
15 27.05.16 330 (СЗ) 10 км    8/0 кучево-дожд., средняя, верхняя 
[Cb calv|Ac trans|Ci fib]
+19.6 +13.9 70 +27  1013.7  -0.5  754  281    +20.1     
18 27.05.16 070 (В) 7000 м  дымка  8/0 средняя, верхняя 
[Ac trans|Ci]
+16.3 +13.2 82 +24  1014.9  1.1  755  284           
21 27.05.16 280 (З) 8000 м  дымка  3/0 верхняя 
[Ci fib]
+14.1 +12.2 88 +19  1014.7  -0.3  754  287           
00 28.05.16 тихо ()   8000 м  местами туман поземный  3/0 верхняя 
[Ci fib]
+13.8 +12.5 92 +18  1014.3  -0.4  754  287           
03 28.05.16 070 (В) 4600 м  дымка  3/0 верхняя 
[Ci fib]
+16.4 +14.3 87 +24  1014.4  0.2  754  284  +12.2         
06 28.05.16 060 (СВ) 10 км    5/0 верхняя 
[Ci fib]
+21.5 +15.6 69 +31  1013.7  -0.5  754  278           
09 28.05.16 050 (СВ) 10 км    8/0 верхняя 
[Cu hum|Ci fib]
+24.1 +16.1 61 +35  1012.6  -1.1  753  275           
12 28.05.16 060 (СВ) 10 км    9/0 кучево-дожд., верхняя 
[Cb calv|Ci]
+25.8 +16.6 57 +37  1011  -1.5  752  273           
15 28.05.16 070 (В) 10 км    9/0 кучево-дожд., верхняя 
[Cb calv|Ci]
+25 +17.1 62 +38  1009.1  -1.8  750  273    +26.6       
18 28.05.16 350 (С) 1{12}  8000 м  гроза, ливневой дождь  10/0 кучево-дожд., средняя, верхняя 
[Cb cap|Ac trans|Ci fib]
+19.6 +15.3 76 +30  1009.7  0.3  751  279           
21 28.05.16 280 (З) 3{15}  8000 м  гроза, ливневой дождь  10/6 1200 м кучево-дожд., средняя 
[Cb cap|Ac und]
+15.6 +14.2 91 +23  1011  0.8  752  284           
00 29.05.16 040 (СВ) 2{15}  2400 м  дымка{гроза, ливн. осадки}  8/0 кучево-дожд., средняя 
[Cb calv|Ac trans]
+15.2 +14.1 93 +23  1007.8  -2.9  749  283           
03 29.05.16 270 (З) 0100 м  туман  ?/?  
+15.2 +14.3 94 +24  1009.6  1.7  751  284  +14.5    21     
06 29.05.16 190 (Ю) 10 км  {туман}  9/3 300 м средняя, верхняя 
[St|Ac trans|Ci fib]
+18.6 +15 80 +28  1010.5  0.9  751  280           
09 29.05.16 270 (З) 10 км    6/0 средняя, верхняя 
[Cu med, cong|Ac trans|Ci fib]
+22.8 +14.5 59 +31  1010.4  751  276           
12 29.05.16 340 (С) 10 км    4/0 средняя 
[Cu med, cong|Ac trans]
+24.7 +15.3 56 +34  1010.6  0.3  752  275           
15 29.05.16 310 (СЗ) 10 км    4/0 средняя 
[Ac trans]
+23.9 +13.4 52 +30  1009.7  -0.9  751  276    +25       
18 29.05.16 320 (СЗ) 8000 м  зарница  6/0 кучево-дожд., средняя, верхняя 
[Cb calv|Ac trans|Ci]
+21 +14.7 67 +29  1010.8  0.9  752  278           
21 29.05.16 240 (ЮЗ) 8000 м  слаб. ливневой дождь  10/5 750 м кучево-дожд., средняя 
[Cb calv|Ac und]
+18.6 +15.1 80 +29  1010.1  -0.6  751  280           
00 30.05.16 230 (ЮЗ) 8000 м  слаб. ливневой дождь  10/0 кучево-дожд., средняя 
[Cb calv|Ac und]
+17.4 +15.5 89 +28  1009.1  -1  750  281           
03 30.05.16 280 (З) 10 км  {ливн. осадки}  9/4 100 м кучево-дожд., средняя 
[Cb calv|Ac trans]
+17.8 +16.2 90 +30  1009.1  750  280  +16.9       
06 30.05.16 230 (ЮЗ) 7000 м  слаб. ливневой дождь  9/0 кучево-дожд., средняя 
[Cb calv|Ac trans]
+18 +16.5 91 +29  1009.4  0.2  751  280           
12 30.05.16 260 (З) 10 км  в посл. час ливневой дождь  9/4 600 м кучево-дожд., средняя 
[Cb calv|Ac trans]
+21 +16.7 76 +33  1009.3  -0.5  751  277           
18 30.05.16 130 (ЮВ) 5000 м  гроза, ливневой дождь  9/5 600 м кучево-дожд., средняя 
[Cb cap|Ac trans]
+17.4 +16.1 92 +29  1010.5  1.5  751  281           
21 30.05.16 130 (ЮВ) 2500 м  слаб. ливневой дождь{гроза}  10/10 660 м 
+17 +15.9 93 +28  1010.8  0.1  752  282           
03 31.05.16 180 (Ю) 6000 м  дымка{ливн. осадки}  9/6 150 м кучево-дожд., средняя 
[Cb calv|Ac trans]
+16.5 +15.4 93 +26  1010.7  751  282  +16.1    41     
12 31.05.16 230 (ЮЗ) 8000 м  слаб. ливневой дождь  10/6 1000 м кучево-дожд., средняя 
[Cb calv|Ac und]
+20 +16.8 82 +32  1010.9  -0.3  752  278           
15 31.05.16 180 (Ю) 8000 м  слаб. ливневой дождь  9/0 кучево-дожд., средняя 
[Cb calv|Ac trans]
+18.9 +16.8 88 +32  1010.7  -0.3  752  279    +20.3     
18 31.05.16 250 (З) 8000 м  зарница{ливн. осадки}  8/0 кучево-дожд., средняя 
[Cb cap|Ac trans]
+17.6 +16.2 92 +29  1010.8  0.1  752  281           
21 31.05.16 тихо ()   2800 м  в посл. час туман  6/4 630 м средняя 
[Sc|Ac trans]
+17.5 +16.6 94 +29  1011  0.1  752  281           
00 01.06.16 260 (З) 3800 м  в посл. час ливневой дождь{туман}  9/5 150 м кучево-дожд., средняя 
[Cb calv|Ac trans]
+18 +17 94 +31  1010.4  -0.6  751  280           
03 01.06.16 220 (ЮЗ) 2200 м  в посл. час ливневой дождь{туман}  9/5 60 м кучево-дожд., средняя 
[Cb calv|Ac trans]
+17.8 +16.9 94 +31  1010.3  -0.1  751  280  +16.6    0.5     
06 01.06.16 180 (Ю) 4500 м  дымка{ливн. осадки, туман}  9/5 360 м кучево-дожд., средняя 
[Cb calv|Ac trans]
+18.8 +17.2 90 +33  1010.5  0.2  751  279           
09 01.06.16 260 (З) 10 км  {ливн. осадки}  8/0 кучево-дожд., средняя, верхняя 
[Cb calv|Ac trans|Ci fib]
+20.6 +16.8 79 +32  1010.3  -0.1  751  278           
12 01.06.16 030 (СВ) 0700 м  сильн. гроза, ливневой дождь  9/6 240 м кучево-дожд., средняя 
[Cb cap|Ac trans]
+19.3 +16.9 86 +31  1010.5  751  279           
15 01.06.16 070 (В) 10 км  {гроза, ливн. осадки}  8/5 1300 м кучево-дожд., средняя 
[Cb calv|Ac trans]
+19.9 +16.9 83 +32  1011  0.5  752  279    +23.2  10     
18 01.06.16 050 (СВ) 7{10}  8000 м  слаб. ливневой дождь{гроза}  10/6 300 м кучево-дожд., средняя 
[Cb calv|Ac und]
+16.2 +14.3 89 +23  1013.1  753  284           
21 01.06.16 060 (СВ) 6{10}  8000 м  {ливн. осадки}  10/6 870 м кучево-дожд., средняя 
[Cb calv|Ac und]
+14.4 +11.6 83 +17  1013.4  0.1  753  286           
00 02.06.16 030 (СВ) 3{10}  8000 м  {ливн. осадки}  10/6 630 м средняя 
[Sc|Ac und]
+13.4 +10.7 84 +15  1013.7  0.3  754  287           
03 02.06.16 080 (В) 10 км  {ливн. осадки}  8/5 960 м кучево-дожд., средняя 
[Cb calv|Ac trans]
+12.5 +10 85 +13  1013.1  -0.6  753  288  +12.4    0.3     
06 02.06.16 050 (СВ) 10 км  {ливн. осадки}  9/5 800 м кучево-дожд., средняя 
[Cb calv|Ac trans]
+15.6 +10.7 73 +18  1013.9  0.9  754  285           
09 02.06.16 040 (СВ) 10 км    9/5 1380 м средняя, верхняя 
[Cu med, cong|Ac trans|Ci fib]
+19.6 +8.6 49 +20  1013.5  -0.3  754  282           
12 02.06.16 020 (С) 10 км    6/0 средняя 
[Cu med, cong|Ac trans]
+21.3 +8.4 44 +21  1012.7  -0.8  753  280           
15 02.06.16 050 (СВ) 4{10}  10 км    5/0 средняя 
[Cu med, cong|Ac trans]
+21.1 +8.5 44 +21  1012.5  -0.1  753  280    +22.1       
18 02.06.16 360 (С) 3{10}  8000 м    4/0 средняя 
[Ac trans]
+17.8 +10.5 62 +20  1013  0.3  753  283           
21 02.06.16 020 (С) 8000 м    ясно 
+16 +10.2 68 +17  1012.3  -0.6  753  285           
00 03.06.16 070 (В) 8000 м    ясно 
+12.5 +10.1 85 +13  1011.8  -0.6  752  288           
03 03.06.16 080 (В) 10 км    ясно 
+13.8 +10.8 82 +15  1012.2  0.4  752  287  +11.8         
06 03.06.16 110 (В) 10 км    1/0 средняя 
[Ac trans]
+18.2 +11.4 64 +21  1012.4  0.3  753  282           
09 03.06.16 120 (ЮВ) 10 км    5/0 
[Cu hum]
+21.1 +9.9 49 +22  1012  -0.3  752  280           
12 03.06.16 120 (ЮВ) 10 км    5/0 
[Cu hum]
+22.1 +9.5 45 +23  1010.6  -1.2  752  278           
15 03.06.16 100 (В) 10 км    4/0 средняя, верхняя 
[Cu hum|Ac trans|Ci fib]
+21.6 +8.2 42 +22  1009.9  -0.8  751  279    +22.3       
18 03.06.16 080 (В) 8000 м    4/0 средняя 
[Ac trans]
+17.7 +8.6 55 +19  1010.1  0.1  751  283           
21 03.06.16 030 (СВ) 8000 м    5/0 средняя 
[Ac trans]
+15.3 +9.2 67 +16  1009.2  -1  750  285           
00 04.06.16 040 (СВ) 8000 м    8/0 средняя 
[Ac trans]
+14.4 +9.2 71 +15  1008.5  -0.6  750  285           
03 04.06.16 060 (СВ) 10 км    8/0 средняя, верхняя 
[Ac trans|Ci fib]
+14.3 +9.1 71 +14  1008.9  0.3  750  286  +12.6         
06 04.06.16 090 (В) 10 км    8/0 средняя, верхняя 
[Ac trans|Ci fib]
+20.3 +9.7 51 +21  1008.6  -0.2  750  280           
09 04.06.16 090 (В) 10 км    8/0 средняя, верхняя 
[Cu med, cong|Ac trans|Ci fib]
+22 +9.3 44 +22  1008.2  -0.2  750  278           
12 04.06.16 090 (В) 10 км    8/0 средняя, верхняя 
[Cu med, cong|Ac trans|Ci fib]
+22.9 +8.7 40 +23  1007.8  -0.3  749  277           
15 04.06.16 160 (Ю) 10 км    8/0 средняя, верхняя 
[Cu med, cong|Ac trans|Ci fib]
+20.8 +9.6 49 +21  1008  0.1  750  279    +23.4       
18 04.06.16 110 (В) 8000 м    8/0 средняя, верхняя 
[Ac trans|Ci]
+15.2 +10.7 74 +17  1009.8  1.5  751  285           
21 04.06.16 100 (В) 8000 м    8/0 средняя, верхняя 
[Ac trans|Ci fib]
+13.3 +10.6 84 +16  1009.9  751  286           
00 05.06.16 100 (В) 8000 м    3/0 верхняя 
[Ci fib]
+11.9 +10.4 91 +15  1009.9  751  288           
03 05.06.16 130 (ЮВ) 10 км    4/0 верхняя 
[Ci fib]
+13.2 +11.3 88 +17  1010.2  0.3  751  287  +11.2         
06 05.06.16 100 (В) 10 км    4/0 верхняя 
[Ci fib]
+18.7 +13.1 70 +26  1010.7  0.6  752  281           
09 05.06.16 150 (ЮВ) 10 км    4/0 
[Cu hum]
+22.4 +12.2 52 +27  1010.8  0.1  752  278           
12 05.06.16 230 (ЮЗ) 10 км  в посл. час гроза  6/5 930 м кучево-дожд., средняя 
[Cb calv|Ac trans]
+21.4 +12.4 56 +26  1010.6  -0.1  752  278           
15 05.06.16 260 (З) 10 км    6/0 кучево-дожд., средняя 
[Cb calv|Ac trans]
+24.2 +7.8 35 +24  1010.3  -0.3  751  277    +24.3  0.0     
18 05.06.16 260 (З) 8000 м    4/0 средняя, верхняя 
[Ac trans|Ci fib]
+19.8 +12.7 64 +26  1011.3  0.9  752  280           
21 05.06.16 230 (ЮЗ) 8000 м  дымка  4/0 средняя 
[Ac trans]
+16.5 +13.8 84 +24  1011.2  -0.1  752  283           
00 06.06.16 220 (ЮЗ) 8000 м  дымка  6/0 кучево-дожд., средняя 
[Cb calv|Ac trans]
+16 +13.2 83 +22  1010.5  -0.6  751  283           
03 06.06.16 230 (ЮЗ) 5000 м  дымка  5/0 средняя, верхняя 
[Ac trans|Ci fib]
+17.4 +15.5 89 +28  1009.7  -0.6  751  281  +15.7         
06 06.06.16 250 (З) 10 км    8/0 кучево-дожд., средняя 
[Cb calv|Ac trans]
+22.1 +16.6 71 +34  1009.5  -0.1  751  276           
09 06.06.16 240 (ЮЗ) 10 км  гроза, ливневой дождь  8/0 кучево-дожд., верхняя 
[Cb cap|Ci fib]
+23.3 +16.4 65 +34  1008.4  -0.8  750  275           
12 06.06.16 250 (З) 7-11{13}  10 км  гроза без осадков{ливн. осадки}  9/0 кучево-дожд., средняя, верхняя 
[Cb cap|Ac trans|Ci fib]
+23.8 +13.2 51 +30  1009  0.2  750  276           
15 06.06.16 250 (З) 7-11{15}  10 км  {гроза}  9/0 кучево-дожд., средняя 
[Cb calv|Ac trans]
+22 +14.6 63 +30  1008.8  -0.1  750  277    +24  0.0     
18 06.06.16 300 (СЗ) 4{15}  8000 м  слаб. ливневой дождь{гроза}  8/0 кучево-дожд., средняя 
[Cb calv|Ac trans]
+18.4 +11.6 65 +22  1009.9  0.9  751  281           
21 06.06.16 280 (З) 8000 м  слаб. ливневой дождь  9/0 кучево-дожд., средняя 
[Cb calv|Ac trans]
+15.8 +13.6 87 +22  1009.5  -0.5  751  283           
00 07.06.16 330 (СЗ) 8000 м  слаб. ливневой дождь  10/0 кучево-дожд., средняя 
[Cb calv|Ac und]
+15 +13.4 90 +22  1009.2  -0.3  750  284           
03 07.06.16 040 (СВ) 10 км  {ливн. осадки}  9/0 кучево-дожд., средняя 
[Cb calv|Ac trans]
+15 +13.2 89 +22  1009.9  0.7  751  284  +14.7       
06 07.06.16 070 (В) 10 км  {ливн. осадки}  8/5 1000 м средняя 
[Cu med, cong|Ac trans]
+17.6 +12.4 72 +22  1010.5  0.6  751  282           
09 07.06.16 010 (С) 5{17}  10 км  в посл. час гроза{ливн. осадки}  5/0 кучево-дожд., средняя 
[Cb calv|Ac trans]
+16 +11.1 73 +19  1011.4  0.8  752  284           
12 07.06.16 050 (СВ) 4{17}  10 км  {гроза, ливн. осадки} [макс. диам. градин 8 мм]  8/0 кучево-дожд., средняя 
[Cb calv|Ac trans]
+18.2 +8.9 55 +19  1011.8  0.5  752  283           
15 07.06.16 360 (С) 10 км    8/0 кучево-дожд., средняя 
[Cb calv|Ac trans]
+18.5 +6.1 44 +19  1012.7  0.7  753  283    +19.5     
18 07.06.16 360 (С) 8000 м    4/0 кучево-дожд., средняя 
[Cb calv|Ac trans]
+14.6 +6 56 +14  1014.6  1.8  754  288           
21 07.06.16 010 (С) 8000 м    4/0 средняя 
[Ac trans]
+12.4 +5.2 61 +12  1015.9  1.1  755  290           
00 08.06.16 340 (С) 8000 м    3/0 средняя 
[Ac trans]
+10.1 +5.3 72 +10  1016.1  0.2  755  293           
03 08.06.16 330 (СЗ) 10 км    1/0 средняя 
[Ac trans]
+10.5 +5.6 72 +11  1016.7  0.5  756  292  +8.3         
06 08.06.16 010 (С) 10 км    3/0 средняя 
[Ac trans]
+15.6 +5.4 51 +16  1017.1  0.4  756  287           
09 08.06.16 330 (СЗ) 10 км    5/0 кучево-дожд. 
[Cb calv]
+16.6 +3.7 42 +18  1016.8  -0.1  756  287           
12 08.06.16 280 (З) 10 км    6/0 кучево-дожд., средняя 
[Cb calv|Ac trans]
+19.2 +3.5 35 +20  1015.9  -0.8  755  284           
15 08.06.16 330 (СЗ) 10 км    6/0 кучево-дожд., средняя 
[Cb calv|Ac trans]
+18.1 +3.4 38 +18  1016.1  0.1  755  285    +19.3       
18 08.06.16 340 (С) 8000 м    6/0 средняя 
[Ac trans]
+14.1 +5.7 57 +15  1017.2  756  289           
21 08.06.16 010 (С) 8000 м    6/0 средняя 
[Ac trans]
+12.8 +4.9 59 +13  1017.2  756  290           
00 09.06.16 030 (СВ) 8000 м    6/0 средняя 
[Ac trans]
+11.2 +4.6 64 +11  1017.3  756  292           
03 09.06.16 080 (В) 10 км    3/0 средняя 
[Ac trans]
+12 +6.3 68 +12  1017.7  0.4  757  291  +8.6         
06 09.06.16 090 (В) 10 км    4/0 средняя, верхняя 
[Cu hum|Ac trans|Ci fib]
+16.6 +6.4 51 +17  1017.9  0.1  757  286           
09 09.06.16 120 (ЮВ) 10 км    4/0 
[Cu hum]
+17.8 +3.9 40 +18  1017.1  -0.6  756  285           
12 09.06.16 020 (С) 10 км    6/0 средняя 
[Cu hum|Ac trans]
+19.5 +4.3 37 +21  1016  -1.1  755  283           
15 09.06.16 050 (СВ) 10 км    4/0 средняя 
[Cu hum|Ac trans]
+19.1 +3.9 37 +20  1015.7  -0.2  755  284    +20       
18 09.06.16 050 (СВ) 5000 м  дым  3/0 средняя 
[Ac trans]
+15.3 +4.4 48 +16  1016.5  0.6  756  288           
21 09.06.16 020 (С) 8000 м    3/0 средняя 
[Ac trans]
+12.1 +4.7 61 +12  1016.5  756  291           
00 10.06.16 050 (СВ) 8000 м    6/0 средняя 
[Ac trans]
+12.8 +5.2 60 +13  1016.4  756  290           
03 10.06.16 070 (В) 10 км    5/0 средняя 
[Ac trans]
+11.7 +8.7 82 +12  1016.9  0.4  756  291  +10.8         
06 10.06.16 120 (ЮВ) 10 км    3/0 средняя 
[Ac trans]
+17.2 +11.3 68 +20  1017.1  0.4  756  285           
09 10.06.16 100 (В) 10 км    4/0 
[Cu med, cong]
+20.4 +10.8 54 +22  1016.5  -0.4  756  281           
12 10.06.16 110 (В) 10 км    5/5 1300 м кучево-дожд. 
[Cb calv]
+19.3 +11.2 59 +23  1016.1  -0.4  756  282           
15 10.06.16 140 (ЮВ) 10 км    5/5 1140 м кучево-дожд. 
[Cb calv]
+19.5 +11.9 61 +24  1015.7  -0.3  755  282    +21.4       
18 10.06.16 090 (В) 8000 м    6/0 кучево-дожд., средняя 
[Cb calv|Ac trans]
+15.7 +11.7 77 +19  1016.3  0.4  756  286           
21 10.06.16 120 (ЮВ) 8000 м    6/0 средняя 
[Ac trans]
+15 +11.3 79 +18  1016.6  0.1  756  287           
00 11.06.16 110 (В) 8000 м    8/4 1500 м кучево-дожд., средняя 
[Cb calv|Ac trans]
+14.4 +11.9 85 +19  1015.9  -0.5  755  287           
03 11.06.16 120 (ЮВ) 10 км    8/4 1500 м кучево-дожд., средняя 
[Cb calv|Ac trans]
+14.7 +12.1 84 +19  1016  755  286  +14         
06 11.06.16 130 (ЮВ) 10 км    8/5 930 м кучево-дожд., средняя 
[Cb calv|Ac trans]
+17.8 +12.5 71 +22  1016.2  0.2  756  283           
09 11.06.16 130 (ЮВ) 10 км  {ливн. осадки}  9/5 750 м кучево-дожд., средняя 
[Cb calv|Ac trans]
+19.2 +13.5 70 +26  1015.9  -0.2  755  282           
12 11.06.16 180 (Ю) 10 км  {ливн. осадки}  4/4 1140 м 
[Cu med, cong]
+21.8 +12.6 56 +26  1014.9  -0.8  755  279           
15 11.06.16 180 (Ю) 10 км    4/0 средняя 
[Cu med, cong|Ac trans]
+22 +11.3 51 +25  1014.1  -0.6  754  279    +23  0.0     
18 11.06.16 140 (ЮВ) 8000 м    4/0 кучево-дожд., средняя 
[Cb calv|Ac trans]
+18.3 +11 62 +21  1014.5  0.1  754  283           
21 11.06.16 220 (ЮЗ) 8000 м    1/0 средняя 
[Ac trans]
+16 +12 77 +21  1014.6  0.1  754  285           
00 12.06.16 тихо ()   6000 м  дымка  ясно 
+13.5 +12 91 +17  1014.7  754  287           
03 12.06.16 тихо ()   10 км    6/0 средняя, верхняя 
[Ac trans|Ci fib]
+16.4 +14.2 87 +24  1015.1  0.5  755  284  +12.8         
06 12.06.16 210 (ЮЗ) 10 км    9/0 средняя, верхняя 
[Cu hum|Ac trans|Ci fib]
+21.8 +13.1 58 +27  1015.2  0.1  755  279           
09 12.06.16 300 (СЗ) 10 км  слаб. ливневой дождь  9/0 кучево-дожд., средняя, верхняя 
[Cb calv|Ac trans|Ci fib]
+21.6 +15 66 +30  1014.7  -0.3  755  279           
12 12.06.16 240 (ЮЗ) 5-10  10 км  {ливн. осадки}  9/0 кучево-дожд., средняя, верхняя 
[Cb calv|Ac trans|Ci fib]
+24.8 +13.9 51 +32  1013.7  -0.9  754  276           
15 12.06.16 270 (З) 4{10}  10 км    5/0 кучево-дожд., средняя, верхняя 
[Cb calv|Ac trans|Ci fib]
+23.3 +14.2 57 +30  1013.6  754  277    +25.3  0.0     
18 12.06.16 280 (З) 8000 м    8/0 средняя, верхняя 
[Ac trans|Ci]
+19.8 +13.3 66 +27  1014.2  0.5  754  281           
21 12.06.16 тихо ()   8000 м    4/0 верхняя 
[Ci fib]
+15.4 +12.7 84 +20  1013.9  -0.3  754  285           
00 13.06.16 180 (Ю) 4200 м  местами туман поземный  4/0 средняя, верхняя 
[Ac trans|Ci fib]
+15.4 +13.9 91 +24  1013.2  -0.6  753  284           
03 13.06.16 200 (Ю) 7000 м  местами туман поземный  8/0 средняя, верхняя 
[Ac trans|Ci]
+16.4 +14.1 86 +25  1013  -0.2  753  283  +13.8         
06 13.06.16 190 (Ю) 10 км    6/0 средняя, верхняя 
[Ac trans|Ci]
+21.5 +13.9 62 +28  1012.8  753  279           
09 13.06.16 190 (Ю) 10 км    5/0 верхняя 
[Cu hum|Ci fib]
+25.3 +14.5 51 +33  1011.5  -1.1  752  274           
12 13.06.16 190 (Ю) 10 км    6/0 верхняя 
[Cu hum|Ci fib]
+26.3 +13.8 46 +33  1010.2  -1.3  751  273           
15 13.06.16 190 (Ю) 10 км    8/0 верхняя 
[Cu med, cong|Ci]
+25.6 +13.3 47 +31  1009.2  -1  751  274    +26.6       
18 13.06.16 тихо ()   8000 м    8/0 средняя, верхняя 
[Ac trans|Ci fib]
+21.4 +10.8 51 +24  1009.7  0.4  751  279           
21 13.06.16 070 (В) 8000 м    5/0 средняя, верхняя 
[Ac trans|Ci fib]
+20.2 +12.2 60 +24  1009.2  -0.7  750  279           
00 14.06.16 090 (В) 8000 м    4/0 верхняя 
[Ci fib]
+16.3 +13 81 +22  1008.4  -0.7  750  282           
03 14.06.16 080 (В) 10 км    6/0 кучево-дожд., средняя, верхняя 
[Cb calv|Ac trans|Ci fib]
+17.9 +13.6 76 +24  1008.3  -0.2  750  281  +16.3         
06 14.06.16 100 (В) 10 км    8/0 кучево-дожд., средняя 
[Cb calv|Ac trans]
+20.9 +15.8 73 +31  1009.1  0.8  750  277           
09 14.06.16 110 (В) 10 км    9/0 кучево-дожд., средняя, верхняя 
[Cb calv|Ac trans|Ci]
+25.2 +15.9 56 +35  1008.1  -0.8  750  273           
12 14.06.16 090 (В) 10 км  в посл. час ливневой дождь  9/0 кучево-дожд., средняя, верхняя 
[Cb calv|Ac trans|Ci]
+24.7 +15.6 57 +34  1007.2  -0.8  749  274           
15 14.06.16 080 (В) 10 км  {ливн. осадки}  9/0 кучево-дожд., средняя, верхняя 
[Cb calv|Ac trans|Ci]
+24.2 +14.5 55 +32  1006.2  -1  748  274    +26.1  0.0     
18 14.06.16 070 (В) 8000 м  в посл. час ливневой дождь  9/0 кучево-дожд., средняя 
[Cb calv|Ac trans]
+22.5 +15.1 63 +31  1005.5  -0.7  748  275           
21 14.06.16 080 (В) 8000 м    9/0 кучево-дожд., средняя 
[Cb calv|Ac trans]
+21.5 +14.3 64 +29  1004.3  -1.3  747  276           
00 15.06.16 110 (В) 10 км    8/0 кучево-дожд., средняя, верхняя 
[Cb calv|Ac trans|Ci fib]
+19.5 +15.7 79 +30  1004.4  747  278           
03 15.06.16 100 (В) 10 км  {ливн. осадки}  8/0 кучево-дожд., средняя, верхняя 
[Cb calv|Ac trans|Ci fib]
+19.7 +16.7 83 +33  1004.9  0.4  747  277  +17.6    0.0     
06 15.06.16 100 (В) 10 км  в посл. час ливневой дождь  9/0 кучево-дожд., средняя 
[Cb calv|Ac trans]
+20.5 +17.7 84 +34  1005.7  0.8  748  276           
09 15.06.16 100 (В) 10 км  {ливн. осадки}  8/0 средняя, верхняя 
[Ac trans|Ci]
+25.4 +18.7 66 +41  1005.3  -0.1  748  271           
12 15.06.16 100 (В) 10 км  {ливн. осадки}  9/0 средняя, верхняя 
[Cu hum|Ac trans|Ci]
+26.5 +18.6 62 +42  1005.1  -0.3  748  270           
15 15.06.16 180 (Ю) 10 км  слаб. ливневой дождь  10/0 кучево-дожд., средняя 
[Cb calv|Ac und]
+24 +19.5 76 +42  1006.3  1.1  748  273    +28.8  0.0     
18 15.06.16 300 (СЗ) 10 км  {ливн. осадки}  9/0 кучево-дожд., средняя 
[Cb calv|Ac trans]
+22.1 +16 68 +33  1006.8  0.3  749  276           
21 15.06.16 340 (С) 8000 м    9/0 кучево-дожд., средняя 
[Cb calv|Ac trans]
+20.8 +17.1 79 +33  1007  0.1  749  277           
00 16.06.16 060 (СВ) 8000 м    9/0 средняя 
[Ac trans]
+19.1 +16.7 86 +32  1008  0.9  749  279           
03 16.06.16 тихо ()   10 км    9/0 кучево-дожд., средняя 
[Cb calv|Ac trans]
+19.6 +17.1 85 +32  1009.2  1.1  750  278  +18.5         
06 16.06.16 220 (ЮЗ) 10 км    8/0 кучево-дожд., средняя 
[Cb calv|Ac trans]
+22 +17.2 74 +35  1010.1  0.9  751  276           
09 16.06.16 200 (Ю) 10 км    9/0 кучево-дожд., средняя 
[Cb calv|Ac trans]
+24.8 +17.9 66 +39  1011  0.9  752  274           
12 16.06.16 150 (ЮВ) 10 км  {ливн. осадки}  9/0 кучево-дожд., средняя 
[Cb calv|Ac trans]
+26 +17.5 59 +39  1010.8  -0.1  752  273           
15 16.06.16 280 (З) 10 км    8/0 кучево-дожд., средняя 
[Cb calv|Ac trans]
+25.4 +17.1 60 +38  1011.1  0.2  752  273    +26.5     
18 16.06.16 280 (З) 8000 м    8/0 кучево-дожд., средняя, верхняя 
[Cb calv|Ac trans|Ci]
+22.5 +16.2 68 +33  1013.2  753  277           
21 16.06.16 280 (З) 8000 м    8/0 средняя, верхняя 
[Ac trans|Ci]
+20.9 +16.2 74 +32  1013.8  0.5  754  279           
00 17.06.16 270 (З) 8000 м    8/0 средняя, верхняя 
[Ac trans|Ci fib]
+18.4 +16.5 89 +30  1014.6  0.7  754  281           
03 17.06.16 250 (З) 3600 м  в посл. час туман  8/3 100 м средняя, верхняя 
[St|Ac trans|Ci]
+18.5 +17.2 92 +32  1015.5  0.8  755  281  +17.8         
06 17.06.16 290 (З) 10 км  {туман}  8/0 средняя, верхняя 
[Ac trans|Ci fib]
+25.3 +17.6 62 +39  1016.6  1.1  756  275           
09 17.06.16 310 (СЗ) 10 км    5/0 верхняя 
[Cu med, cong|Ci fib]
+27.8 +15.8 48 +38  1016.9  0.3  756  273           
12 17.06.16 270 (З) 10 км    6/0 кучево-дожд., верхняя 
[Cb calv|Ci fib]
+28.9 +16.2 46 +39  1016.7  -0.1  756  272           
15 17.06.16 280 (З) 10 км    8/0 кучево-дожд., верхняя 
[Cb calv|Ci fib]
+27.3 +17.6 55 +41  1017  0.2  756  273    +29.6       
18 17.06.16 270 (З) 8000 м    6/0 кучево-дожд., средняя, верхняя 
[Cb calv|Ac trans|Ci fib]
+24.2 +17.7 67 +38  1018.4  1.3  757  276           
21 17.06.16 300 (СЗ) 8000 м    3/0 средняя 
[Ac trans]
+23.2 +18.8 76 +39  1018.4  757  277           
00 18.06.16 310 (СЗ) 8000 м    ясно 
+22.1 +17.3 74 +35  1018.6  757  278           
03 18.06.16 320 (СЗ) 10 км    3/0 средняя 
[Ac trans]
+22 +17.9 78 +36  1019.3  0.6  758  279  +20.4         
06 18.06.16 200 (Ю) 10 км    ясно 
+27.5 +19.8 63 +45  1019.7  0.7  758  273           
09 18.06.16 090 (В) 10 км    5/0 верхняя 
[Cu med, cong|Ci fib]
+30.2 +17 45 +42  1019.3  -0.3  758  271           
12 18.06.16 110 (В) 10 км    6/0 верхняя 
[Cu med, cong|Ci fib]
+31.2 +16.9 42 +43  1018.5  -0.7  758  270           
15 18.06.16 110 (В) 10 км    5/0 верхняя 
[Cu med, cong|Ci fib]
+29.5 +17.3 48 +42  1018.3  -0.2  757  272    +31.6       
18 18.06.16 290 (З) 8000 м    5/0 кучево-дожд., верхняя 
[Cb calv|Ci]
+26.4 +18.5 62 +41  1018.7  0.3  758  274           
21 18.06.16 350 (С) 8000 м    3/0 верхняя 
[Ci fib]
+23.6 +18.2 72 +38  1018.4  -0.3  757  277           
00 19.06.16 010 (С) 8000 м    ясно 
+23.1 +17.3 70 +36  1018.1  -0.3  757  277           
03 19.06.16 080 (В) 10 км    3/0 верхняя 
[Ci fib]
+24.2 +18.1 69 +38  1018.5  0.3  757  276  +21.6         
06 19.06.16 090 (В) 10 км    1/0 верхняя 
[Ci fib]
+28.4 +19.1 57 +45  1018.5  0.1  758  272           
09 19.06.16 070 (В) 10 км    1/0 
[Cu med, cong]
+31.4 +18.1 45 +46  1018.6  0.1  758  270           
12 19.06.16 110 (В) 10 км    4/0 верхняя 
[Cu med, cong|Ci fib]
+32.9 +16.3 37 +44  1017.9  -0.6  757  269           
15 19.06.16 080 (В) 10 км    5/0 верхняя 
[Ci fib]
+32.1 +15.9 38 +42  1017  -0.8  756  269    +33.2       
18 19.06.16 020 (С) 8000 м    4/0 средняя, верхняя 
[Ac trans|Ci fib]
+29.2 +17.2 48 +42  1018.7  1.5  758  272           
Время (UTC), дата Ветер
(°,м/с) 
Видим.   Явления Облачность Т
(°С)
Тd
(°С)
f(%) Тe
(°С)
Pmin
(гПа)
dP
(гПа)
Po
(мм)
O2
(г/м3)
Тmin Tmax R s Состояние
почвы